EW0433 Weather Reports


Display with metric or nautical units.
time (UTC)temp
F
wind
direction
speed
MPH
gust
MPH
rain 1hr
in
rain 24hr
in
rain mn
in
humidity
%
barometer
mb
20260505211325 62 249 7.0 10.0 0.00 0.44 0.08 69 1015.6
20260505210325 62 259 8.0 12.0 0.00 0.44 0.08 69 1015.8
20260505205314 62 255 9.0 12.0 0.00 0.44 0.08 69 1015.7
20260505204321 61 239 4.0 13.0 0.00 0.44 0.08 69 1015.7
20260505203327 61 242 9.0 14.0 0.00 0.44 0.08 69 1015.6
20260505202313 61 252 9.0 16.0 0.00 0.44 0.08 69 1015.7
20260505201319 61 250 7.0 14.0 0.00 0.44 0.08 70 1015.7
20260505195344 61 283 8.0 13.0 0.00 0.44 0.08 70 1016.0
20260505194314 61 260 6.0 13.0 0.00 0.44 0.08 70 1016.0
20260505193338 60 234 7.0 11.0 0.00 0.44 0.08 72 1016.0
20260505192324 59 239 8.0 12.0 0.00 0.44 0.08 71 1016.0
20260505191334 59 251 9.0 14.0 0.00 0.44 0.08 71 1016.0
20260505190332 59 247 7.0 15.0 0.00 0.44 0.08 72 1016.0
20260505185322 59 248 9.0 15.0 0.00 0.44 0.08 71 1015.9
20260505184326 59 257 9.0 15.0 0.00 0.44 0.08 72 1015.9
20260505183333 59 252 7.0 13.0 0.00 0.44 0.08 71 1016.0
20260505182314 58 258 6.0 12.0 0.00 0.44 0.08 72 1016.0
20260505181319 58 278 8.0 13.0 0.00 0.44 0.08 72 1015.9
20260505180322 58 233 8.0 12.0 0.00 0.44 0.08 72 1015.8
20260505175329 58 244 9.0 13.0 0.00 0.44 0.08 71 1015.8
20260505174336 57 251 6.0 15.0 0.00 0.44 0.08 71 1015.6
20260505173333 57 260 7.0 15.0 0.00 0.44 0.08 71 1015.6
20260505172323 57 264 9.0 16.0 0.00 0.44 0.08 71 1015.5
20260505171325 56 273 8.0 13.0 0.00 0.44 0.08 70 1015.5
20260505170340 56 262 9.0 14.0 0.00 0.44 0.08 70 1015.7
20260505165329 56 307 7.0 11.0 0.00 0.44 0.08 71 1015.7
20260505164322 55 258 7.0 13.0 0.00 0.44 0.08 70 1015.6
20260505163346 55 264 7.0 13.0 0.00 0.44 0.08 70 1015.6
20260505162340 55 281 8.0 13.0 0.00 0.44 0.08 69 1015.5
20260505161324 55 273 9.0 14.0 0.00 0.44 0.08 69 1015.4
20260505160346 55 266 6.0 13.0 0.00 0.44 0.08 69 1015.4
20260505153320 54 254 6.0 13.0 0.00 0.44 0.08 67 1015.0
20260505152322 54 311 4.0 12.0 0.00 0.44 0.08 68 1015.1
20260505151328 54 275 6.0 10.0 0.00 0.44 0.08 67 1014.9
20260505150313 54 285 4.0 12.0 0.00 0.44 0.08 68 1014.8
20260505140311 53 258 4.0 9.0 0.00 0.44 0.08 70 1014.5
20260505124316 52 345 5.0 11.0 0.00 0.44 0.08 70 1014.3
20260505123326 52 345 5.0 10.0 0.00 0.44 0.08 70 1014.3
20260505122319 52 345 4.0 9.0 0.00 0.44 0.08 70 1014.3
20260505121346 52 345 4.0 12.0 0.00 0.44 0.08 71 1014.4
20260505120312 52 345 6.0 13.0 0.00 0.44 0.08 71 1014.2
20260505115317 52 345 6.0 11.0 0.00 0.44 0.08 71 1014.2
20260505114326 52 345 5.0 12.0 0.00 0.44 0.08 71 1014.1
20260505113330 52 345 3.0 10.0 0.00 0.44 0.08 71 1014.1
20260505111326 52 345 7.0 12.0 0.00 0.44 0.08 71 1014.1
20260505110327 52 345 5.0 10.0 0.00 0.44 0.08 71 1014.2
20260505101322 51 345 4.0 10.0 0.00 0.44 0.08 72 1014.4
20260505100330 51 345 3.0 6.0 0.00 0.44 0.08 72 1014.6
20260505095319 51 345 4.0 8.0 0.00 0.44 0.08 72 1014.6
20260505094326 51 345 5.0 8.0 0.01 0.44 0.08 72 1014.4
20260505093329 51 345 5.0 8.0 0.01 0.44 0.08 72 1014.5
20260505092353 51 345 2.0 8.0 0.01 0.44 0.08 72 1014.5
20260505091324 51 345 2.0 8.0 0.02 0.44 0.08 72 1014.7
20260505090325 51 345 4.0 5.0 0.04 0.44 0.08 72 1014.7
20260505085334 51 345 3.0 6.0 0.04 0.44 0.08 71 1015.1
20260505084341 51 345 4.0 9.0 0.03 0.43 0.07 71 1015.0
20260505083347 51 345 5.0 10.0 0.04 0.43 0.07 71 1015.0
20260505082333 51 345 3.0 6.0 0.04 0.43 0.07 71 1015.0
20260505081328 51 345 3.0 9.0 0.04 0.42 0.06 71 1015.2
20260505080326 51 345 3.0 6.0 0.04 0.40 0.04 71 1015.1
20260505075318 51 345 3.0 5.0 0.04 0.40 0.04 71 1015.0
20260505074324 51 345 2.0 6.0 0.04 0.40 0.04 71 1015.2
20260505073313 51 345 2.0 9.0 0.04 0.39 0.03 70 1015.1
20260505072320 51 345 4.0 8.0 0.05 0.39 0.03 70 1015.3
20260505071322 51 345 4.0 6.0 0.05 0.38 0.02 70 1015.4
20260505070351 51 345 2.0 6.0 0.05 0.36 0.00 70 1015.3
20260505065324 51 345 2.0 5.0 0.06 0.36 0.00 70 1015.5
20260505064342 51 345 4.0 10.0 0.06 0.36 0.36 70 1015.4
20260505063321 51 345 4.0 8.0 0.05 0.35 0.35 70 1015.3
20260505062332 51 345 4.0 8.0 0.04 0.34 0.34 70 1015.0
20260505061320 51 345 5.0 10.0 0.04 0.33 0.33 70 1015.4
20260505060325 51 345 5.0 10.0 0.02 0.31 0.31 70 1015.4
20260505055319 50 345 7.0 11.0 0.02 0.30 0.30 70 1015.3
20260505054326 50 345 5.0 10.0 0.03 0.30 0.30 70 1015.3
20260505053335 50 345 5.0 13.0 0.05 0.30 0.30 70 1015.5
20260505052329 50 345 8.0 13.0 0.08 0.30 0.30 70 1015.6
20260505051339 50 345 6.0 12.0 0.11 0.29 0.29 70 1015.4
20260505050325 50 345 5.0 12.0 0.12 0.29 0.29 70 1015.5
20260505040342 50 345 3.0 6.0 0.04 0.17 0.17 70 1016.2
20260505035329 50 345 3.0 8.0 0.03 0.16 0.16 71 1015.9
20260505034326 50 345 4.0 9.0 0.03 0.16 0.16 71 1015.0
20260505033322 50 345 5.0 12.0 0.04 0.16 0.16 71 1014.6
20260505032338 50 345 4.0 9.0 0.05 0.15 0.15 71 1014.6
20260505031348 51 345 4.0 10.0 0.04 0.14 0.14 71 1014.6
20260505030311 51 345 3.0 8.0 0.03 0.13 0.13 71 1014.6
20260505025322 51 345 3.0 8.0 0.04 0.13 0.13 71 1014.9
20260505024338 52 345 3.0 10.0 0.05 0.13 0.13 71 1015.0
20260505023319 52 345 5.0 13.0 0.05 0.12 0.12 71 1014.9
20260505022334 52 345 6.0 13.0 0.03 0.10 0.10 71 1015.2
20260505021321 52 345 7.0 12.0 0.03 0.10 0.10 71 1015.0
20260505020325 52 345 7.0 13.0 0.04 0.10 0.10 71 1014.9
20260505015319 52 345 6.0 12.0 0.03 0.09 0.09 71 1015.0
20260505014325 52 345 7.0 13.0 0.03 0.08 0.08 71 1015.2
20260505013352 52 345 6.0 12.0 0.03 0.07 0.07 71 1015.2
20260505012320 53 345 4.0 9.0 0.03 0.07 0.07 71 1015.4
20260505011327 53 345 4.0 10.0 0.03 0.07 0.07 72 1015.4
20260505010336 53 345 4.0 8.0 0.03 0.06 0.06 72 1015.4
20260505005325 53 345 5.0 10.0 0.04 0.06 0.06 72 1015.4
20260505004314 53 345 5.0 12.0 0.03 0.05 0.05 72 1015.5
20260505003316 53 345 4.0 9.0 0.03 0.04 0.04 73 1015.6
20260505002327 54 345 3.0 6.0 0.03 0.04 0.04 73 1015.6
20260505001331 54 345 4.0 9.0 0.04 0.04 0.04 74 1015.5
20260505000317 54 345 4.0 8.0 0.02 0.02 0.02 75 1015.5
20260504235350 54 345 2.0 5.0 0.02 0.02 0.02 76 1015.4
20260504234321 55 345 1.0 6.0 0.02 0.02 0.02 77 1015.3
20260504233326 55 345 3.0 9.0 0.01 0.01 0.01 78 1015.2
20260504232331 55 296 4.0 9.0 0.01 0.01 0.01 77 1015.4
20260504231319 56 322 5.0 11.0 0.00 0.00 0.00 76 1015.2
20260504230323 57 345 5.0 9.0 0.00 0.00 0.00 75 1015.0
20260504225328 57 345 3.0 8.0 0.00 0.00 0.00 72 1015.3
20260504224316 58 293 4.0 9.0 0.00 0.00 0.00 70 1015.3
20260504223344 58 303 4.0 6.0 0.00 0.00 0.00 69 1015.4
20260504222343 59 295 4.0 6.0 0.00 0.00 0.00 68 1015.4
20260504221318 59 284 4.0 9.0 0.00 0.00 0.00 67 1015.4
20260504220324 60 319 4.0 12.0 0.00 0.00 0.00 67 1015.3
20260504215335 60 266 7.0 13.0 0.00 0.00 0.00 62 1015.2
20260504214332 60 258 6.0 10.0 0.00 0.00 0.00 57 1015.3
20260504213352 60 242 5.0 11.0 0.00 0.00 0.00 59 1015.2
20260504212317 61 251 8.0 13.0 0.00 0.00 0.00 58 1015.3